KA1WBH Weather Reports


Display with metric or nautical units.
time (UTC)temp
F
wind
direction
speed
MPH
gust
MPH
rain 1hr
in
rain 24hr
in
rain mn
in
humidity
%
barometer
mb
20170329031014 39 18 0.0 6.0 0.01 0.05 0.05 98 1012.8
20170329030014 39 75 0.0 7.0 0.01 0.05 0.05 98 1012.8
20170329025014 39 33 0.0 0.0 0.00 0.04 0.04 98 1013.1
20170329024014 39 23 0.0 0.0 0.00 0.04 0.04 98 1013.1
20170329023014 39 23 0.0 6.0 0.00 0.04 0.04 98 1012.9
20170329022014 39 352 0.0 6.0 0.00 0.04 0.04 98 1013.0
20170329021014 39 48 0.0 10.0 0.00 0.04 0.04 98 1012.9
20170329020014 39 59 3.0 9.0 0.00 0.05 0.04 98 1013.2
20170329015014 39 56 0.0 7.0 0.00 0.05 0.04 98 1013.3
20170329014014 39 2 5.0 7.0 0.00 0.05 0.04 98 1013.2
20170329013014 39 71 4.0 7.0 0.00 0.05 0.04 98 1013.2
20170329012014 39 74 4.0 7.0 0.00 0.05 0.04 98 1013.4
20170329011014 39 62 2.0 9.0 0.00 0.05 0.04 98 1013.6
20170329010014 39 66 4.0 10.0 0.00 0.05 0.04 98 1013.5
20170329005014 39 69 4.0 7.0 0.00 0.05 0.04 98 1013.5
20170329004014 39 83 1.0 11.0 0.00 0.05 0.04 98 1013.3
20170329003014 39 52 3.0 7.0 0.00 0.05 0.04 98 1013.2
20170329002014 39 48 4.0 9.0 0.00 0.05 0.04 98 1013.4
20170329001014 39 75 4.0 10.0 0.00 0.05 0.04 98 1013.2
20170329000014 39 104 5.0 10.0 0.00 0.06 0.04 98 1013.1
20170328235014 39 67 5.0 7.0 0.00 0.06 0.04 98 1013.0
20170328234014 39 53 1.0 10.0 0.00 0.06 0.04 98 1012.9
20170328233014 39 38 6.0 10.0 0.00 0.06 0.04 98 1012.9
20170328232014 39 60 5.0 14.0 0.00 0.06 0.04 97 1012.9
20170328231014 39 82 3.0 11.0 0.00 0.06 0.04 98 1012.9
20170328230014 39 92 9.0 12.0 0.00 0.06 0.04 97 1012.8
20170328225015 39 48 6.0 13.0 0.00 0.06 0.04 97 1012.9
20170328224014 39 92 7.0 10.0 0.00 0.06 0.04 97 1013.0
20170328223014 39 48 9.0 11.0 0.00 0.06 0.04 97 1013.1
20170328222014 39 94 7.0 11.0 0.00 0.06 0.04 97 1013.2
20170328221014 39 79 0.0 11.0 0.00 0.06 0.04 97 1013.3
20170328220014 39 48 9.0 11.0 0.00 0.07 0.04 97 1013.2
20170328215014 39 63 11.0 12.0 0.00 0.07 0.04 97 1013.2
20170328214014 39 52 6.0 14.0 0.00 0.07 0.04 97 1013.2
20170328213014 39 76 1.0 13.0 0.00 0.07 0.04 97 1013.2
20170328212014 39 73 6.0 11.0 0.00 0.07 0.04 97 1013.3
20170328211014 39 57 5.0 11.0 0.00 0.07 0.04 97 1013.3
20170328210014 40 90 4.0 9.0 0.01 0.07 0.04 97 1013.6
20170328205014 40 104 0.0 5.0 0.01 0.08 0.04 97 1013.8
20170328204014 39 101 2.0 6.0 0.01 0.08 0.04 96 1014.0
20170328203014 39 92 4.0 10.0 0.01 0.08 0.04 96 1014.1
20170328202014 40 102 6.0 9.0 0.01 0.08 0.04 96 1014.1
20170328201014 40 102 5.0 11.0 0.01 0.08 0.04 96 1014.3
20170328200014 40 104 3.0 9.0 0.00 0.07 0.03 95 1014.6
20170328195014 40 132 4.0 7.0 0.00 0.07 0.03 95 1014.8
20170328194014 40 160 0.0 6.0 0.00 0.07 0.03 95 1015.2
20170328193014 40 131 2.0 6.0 0.00 0.08 0.03 95 1015.6
20170328192014 41 139 0.0 3.0 0.00 0.08 0.03 95 1015.3
20170328191014 41 141 2.0 6.0 0.00 0.08 0.03 94 1015.3
20170328190016 42 152 2.0 5.0 0.00 0.08 0.03 92 1015.5
20170328185014 42 121 0.0 3.0 0.00 0.08 0.03 92 1015.6
20170328184014 43 150 0.0 6.0 0.00 0.08 0.03 92 1015.4
20170328183013 43 61 4.0 7.0 0.00 0.09 0.03 92 1015.1
20170328182014 43 62 5.0 7.0 0.00 0.09 0.03 92 1015.2
20170328181014 43 56 0.0 7.0 0.00 0.09 0.03 93 1015.1
20170328180014 43 73 6.0 6.0 0.00 0.09 0.03 94 1015.1
20170328175014 42 84 0.0 12.0 0.00 0.09 0.03 94 1015.0
20170328174014 41 48 5.0 13.0 0.00 0.09 0.03 94 1014.9
20170328173014 41 38 6.0 11.0 0.00 0.09 0.03 95 1014.9
20170328172014 41 99 2.0 12.0 0.00 0.09 0.03 96 1015.0
20170328171013 41 86 5.0 12.0 0.00 0.09 0.03 96 1015.0
20170328170014 41 90 3.0 10.0 0.00 0.09 0.03 97 1015.1
20170328165013 41 61 4.0 10.0 0.00 0.09 0.03 97 1015.3
20170328164014 41 76 3.0 11.0 0.00 0.09 0.03 97 1015.4
20170328163014 41 73 10.0 12.0 0.00 0.09 0.03 97 1015.1
20170328162013 41 69 4.0 9.0 0.00 0.09 0.03 98 1015.6
20170328161014 40 6 8.0 9.0 0.00 0.09 0.03 98 1015.7
20170328160014 40 75 5.0 10.0 0.00 0.09 0.03 98 1016.0
20170328155014 40 79 4.0 7.0 0.00 0.09 0.03 99 1015.8
20170328154014 39 55 4.0 10.0 0.00 0.09 0.03 99 1016.0
20170328153014 40 38 2.0 7.0 0.00 0.09 0.03 99 1016.0
20170328152013 39 43 4.0 9.0 0.01 0.09 0.03 99 1016.0
20170328151013 38 43 3.0 11.0 0.01 0.09 0.03 99 1015.9
20170328150014 38 65 7.0 8.0 0.01 0.09 0.03 99 1016.1
20170328145014 38 77 5.0 9.0 0.01 0.10 0.03 99 1016.3
20170328144013 38 56 0.0 6.0 0.01 0.10 0.03 99 1016.6
20170328143013 38 65 2.0 7.0 0.01 0.10 0.03 99 1016.6
20170328142013 38 56 0.0 5.0 0.00 0.09 0.02 99 1016.5
20170328141013 38 75 0.0 7.0 0.00 0.09 0.02 99 1016.6
20170328140013 37 60 2.0 9.0 0.00 0.09 0.02 99 1016.7
20170328135013 37 65 0.0 6.0 0.00 0.09 0.02 99 1016.7
20170328134014 37 58 4.0 7.0 0.00 0.09 0.02 99 1016.6
20170328133013 37 80 3.0 5.0 0.00 0.09 0.02 99 1016.8
20170328132013 37 95 0.0 6.0 0.00 0.09 0.02 99 1016.8
20170328131013 37 85 0.0 6.0 0.00 0.09 0.02 99 1016.8
20170328130013 37 83 4.0 6.0 0.00 0.09 0.02 99 1016.7
20170328125014 37 80 0.0 6.0 0.00 0.10 0.02 99 1016.8
20170328124013 37 62 3.0 5.0 0.00 0.10 0.02 99 1016.8
20170328123013 37 33 1.0 6.0 0.00 0.10 0.02 99 1016.9
20170328122013 37 67 0.0 9.0 0.00 0.10 0.02 99 1016.9
20170328121014 36 55 3.0 10.0 0.00 0.10 0.02 99 1016.6
20170328120013 36 56 6.0 9.0 0.00 0.10 0.02 99 1016.5
20170328115013 36 85 1.0 7.0 0.00 0.10 0.02 99 1016.4
20170328114013 36 71 1.0 7.0 0.00 0.10 0.02 99 1016.5
20170328113013 36 85 5.0 9.0 0.00 0.10 0.02 99 1016.5
20170328112014 36 84 7.0 8.0 0.00 0.10 0.02 99 1016.5
20170328111013 36 91 6.0 11.0 0.00 0.10 0.02 99 1016.2
20170328110013 36 70 8.0 11.0 0.00 0.10 0.02 99 1016.1
20170328105013 36 96 1.0 12.0 0.00 0.10 0.02 99 1015.9
20170328104013 36 55 4.0 11.0 0.00 0.10 0.02 99 1016.0
20170328103013 36 58 4.0 9.0 0.00 0.10 0.02 99 1015.9
20170328102013 37 63 8.0 9.0 0.01 0.10 0.02 99 1016.0
20170328101013 36 69 1.0 7.0 0.01 0.10 0.02 99 1016.0
20170328100013 36 78 5.0 6.0 0.01 0.10 0.02 99 1016.0
20170328095013 36 73 0.0 0.0 0.01 0.10 0.02 99 1016.2
20170328094013 37 69 0.0 7.0 0.01 0.11 0.02 99 1016.4
20170328093014 37 80 2.0 7.0 0.01 0.11 0.02 99 1015.5
20170328092013 37 73 3.0 8.0 0.00 0.10 0.01 99 1015.4
20170328091013 37 68 5.0 7.0 0.00 0.10 0.01 99 1015.6
20170328090013 37 73 6.0 6.0 0.00 0.10 0.01 99 1015.4
20170328085013 37 89 0.0 6.0 0.00 0.10 0.01 99 1015.2
20170328084013 37 38 2.0 7.0 0.00 0.10 0.01 99 1015.3
20170328083013 37 83 3.0 5.0 0.00 0.10 0.01 99 1015.3
20170328082013 37 66 4.0 8.0 0.00 0.10 0.01 99 1015.3
20170328081013 37 54 0.0 10.0 0.00 0.10 0.01 99 1015.3
20170328080013 37 48 4.0 9.0 0.00 0.10 0.01 99 1015.5
20170328075013 37 58 5.0 7.0 0.00 0.10 0.01 99 1015.7
20170328074013 37 72 2.0 7.0 0.00 0.10 0.01 99 1015.8
20170328073013 37 82 4.0 10.0 0.00 0.10 0.01 99 1015.6
20170328072013 37 59 3.0 10.0 0.00 0.10 0.01 99 1015.6
20170328071013 37 54 5.0 10.0 0.00 0.10 0.01 99 1015.7
20170328070013 37 81 2.0 7.0 0.00 0.10 0.01 99 1015.8
20170328065013 38 33 1.0 8.0 0.00 0.10 0.01 99 1015.9
20170328064013 38 74 1.0 8.0 0.00 0.10 0.01 98 1016.0
20170328063013 39 15 3.0 9.0 0.00 0.10 0.01 99 1016.0
20170328062013 39 61 0.0 0.0 0.00 0.10 0.01 99 1016.0
20170328061013 39 33 0.0 4.0 0.01 0.10 0.01 99 1016.0
20170328060013 39 61 0.0 6.0 0.01 0.10 0.01 99 1016.0
20170328055013 39 33 0.0 0.0 0.01 0.10 0.01 99 1016.5
20170328054013 40 352 0.0 5.0 0.01 0.10 0.01 99 1016.5
20170328053013 40 43 5.0 5.0 0.01 0.10 0.01 99 1016.3
20170328052013 40 25 0.0 7.0 0.01 0.10 0.01 99 1016.5
20170328051013 40 350 1.0 8.0 0.00 0.09 0.00 99 1016.5
20170328050013 40 340 7.0 7.0 0.00 0.09 0.00 99 1016.6
20170328045013 40 343 0.0 7.0 0.00 0.09 0.00 99 1016.5
20170328044013 40 6 2.0 5.0 0.00 0.09 0.00 99 1016.1
20170328043013 41 348 4.0 9.0 0.00 0.09 0.00 99 1016.1
20170328042013 41 322 3.0 7.0 0.00 0.09 0.00 99 1016.1
20170328041013 41 347 4.0 6.0 0.00 0.09 0.00 99 1016.1
20170328040013 41 359 0.0 0.0 0.00 0.09 0.00 99 1016.1
20170328035013 42 358 0.0 4.0 0.00 0.09 0.09 99 1016.0
20170328034013 42 358 0.0 5.0 0.00 0.09 0.09 99 1015.9
20170328033013 42 2 0.0 7.0 0.00 0.09 0.09 99 1016.0
20170328032013 42 349 3.0 7.0 0.00 0.09 0.09 99 1015.9